This is the latest recevied weather packets stored in our database for station/object PY4BN-13. If no packets are shown the sender has not sent any weather packets the latest 10 day(s).
| Time | Temp. | Humidity | Pressure | Rain* | Wind** | Luminosity | Snow |
|---|---|---|---|---|---|---|---|
| 1777753800 | 27.22° C | 44% | 907.8 hPa | - | - | - | - |
| 1777752900 | 27.22° C | 45% | 907.6 hPa | - | - | - | - |
| 1777752000 | 27.22° C | 44% | 907.5 hPa | - | - | - | - |
| 1777751100 | 27.22° C | 45% | 907.4 hPa | - | - | - | - |
| 1777750200 | 27.22° C | 46% | 907.2 hPa | - | - | - | - |
| 1777749300 | 27.22° C | 48% | 907 hPa | - | - | - | - |
| 1777748400 | 27.22° C | 51% | 907 hPa | - | - | - | - |
| 1777747500 | 27.22° C | 46% | 906.9 hPa | - | - | - | - |
| 1777746600 | 27.22° C | 45% | 906.7 hPa | - | - | - | - |
| 1777745700 | 27.22° C | 45% | 906.7 hPa | - | - | - | - |
| 1777744800 | 27.22° C | 45% | 906.7 hPa | - | - | - | - |
| 1777743912 | 26.67° C | 45% | 906.7 hPa | - | - | - | - |
| 1777743000 | 26.67° C | 47% | 906.8 hPa | - | - | - | - |
| 1777742100 | 26.67° C | 49% | 906.9 hPa | - | - | - | - |
| 1777741200 | 26.67° C | 49% | 906.9 hPa | - | - | - | - |
| 1777740300 | 26.67° C | 49% | 907.1 hPa | - | - | - | - |
| 1777739400 | 26.67° C | 49% | 907.2 hPa | - | - | - | - |
| 1777738500 | 26.67° C | 50% | 907.5 hPa | - | - | - | - |
| 1777737600 | 26.67° C | 50% | 907.6 hPa | - | - | - | - |
| 1777736700 | 26.67° C | 50% | 907.9 hPa | - | - | - | - |
| 1777735800 | 26.67° C | 50% | 908.2 hPa | - | - | - | - |
| 1777734900 | 26.67° C | 49% | 908.4 hPa | - | - | - | - |
| 1777734000 | 26.67° C | 49% | 908.6 hPa | - | - | - | - |
| 1777733100 | 26.67° C | 49% | 908.8 hPa | - | - | - | - |
| 1777732200 | 26.67° C | 49% | 909.1 hPa | - | - | - | - |
* Rain since midnight (hover to see other rain measurements)
** Current wind speed in m/s (hover to see current wind gust speed)